Weather History for Crestview, FL

Change the Weather History Date:

Sunday, January 6, 2013

  Actual Average Record
Temperature  
Mean Temperature 50 °F -  
Max Temperature 54 °F - - ()
Min Temperature 45 °F - - ()
Degree Days  
Heating Degree Days 16    
Moisture  
Dew Point 40 °F    
Average Humidity 69    
Maximum Humidity 85    
Minimum Humidity 49    
Precipitation  
Precipitation 0.01 in - - ()
Sea Level Pressure  
Sea Level Pressure 30.22 in    
Wind  
Wind Speed 6 mph (North)    
Max Wind Speed 12 mph    
Max Gust Speed -    
Visibility 10 miles    
Events Rain    
T = Trace of Precipitation, MM = Missing Value Source: NWS Daily Summary

Daily Weather History Graph

Daily Weather History Graph

Search for Another Location

Airport:

Trip Planner

Search our weather history database for the weather conditions in past years. The results will help you decide how hot, cold, wet, or windy it might be!

Date:

Astronomy

Jan. 06, 2013 Rise Set
Actual Time 6:44 AM CST 5:00 PM CST
Civil Twilight 6:18 AM CST 5:26 PM CST
Nautical Twilight 5:48 AM CST 5:56 PM CST
Astronomical Twilight 5:18 AM CST 6:25 PM CST
Moon 1:07 AM CST (1/6) 12:19 PM CST (1/6)
Length of Visible Light 11h 08m
Length of Day
10h 15m
Waning Crescent, 33% of the Moon is Illuminated
Jan 6
Waning Crescent
Jan 11
New
Jan 18
First Quarter
Jan 26
Full
Feb 3
Last Quarter

Hourly Weather History & Observations

Time (CST) Temp. Windchill Dew Point Humidity Pressure Visibility Wind Dir Wind Speed Gust Speed Precip Events Conditions
12:55 AM 46.8 °F - 36.1 °F 67% 30.23 in 10.0 mi North 5.8 mph - N/A   Partly Cloudy
1:55 AM 45.9 °F - 38.1 °F 74% 30.24 in 10.0 mi Calm Calm - N/A   Overcast
2:55 AM 46.8 °F - 39.0 °F 74% 30.24 in 10.0 mi Calm Calm - N/A   Overcast
3:55 AM 47.3 °F - 39.2 °F 73% 30.21 in 10.0 mi North 6.9 mph - N/A   Overcast
4:55 AM 47.7 °F - 37.8 °F 69% 30.22 in 10.0 mi NE 4.6 mph - N/A   Overcast
5:55 AM 48.0 °F - 38.1 °F 69% 30.22 in 10.0 mi NNE 4.6 mph - N/A   Overcast
6:55 AM 48.6 °F - 37.8 °F 66% 30.24 in 10.0 mi North 6.9 mph - N/A   Overcast
7:55 AM 49.5 °F - 37.2 °F 63% 30.24 in 10.0 mi NNE 4.6 mph - N/A   Overcast
8:55 AM 50.5 °F - 36.9 °F 59% 30.25 in 10.0 mi North 9.2 mph - N/A   Mostly Cloudy
9:55 AM 51.3 °F - 36.1 °F 56% 30.26 in 10.0 mi NNE 5.8 mph - N/A   Overcast
10:55 AM 53.2 °F - 34.9 °F 50% 30.24 in 10.0 mi NE 8.1 mph - N/A   Overcast
11:55 AM 53.8 °F - 36.3 °F 52% 30.22 in 10.0 mi North 9.2 mph - N/A   Overcast
12:55 PM 53.2 °F - 38.5 °F 57% 30.19 in 10.0 mi North 10.4 mph - N/A   Overcast
1:55 PM 54.5 °F - 35.6 °F 49% 30.19 in 10.0 mi North 11.5 mph - N/A   Mostly Cloudy
2:01 PM 53.6 °F - 37.4 °F 54% 30.19 in 9.0 mi North 10.4 mph - N/A Rain Light Rain
2:24 PM 51.8 °F - 42.8 °F 71% 30.19 in 10.0 mi North 6.9 mph - N/A   Mostly Cloudy
2:55 PM 51.6 °F - 42.3 °F 70% 30.20 in 10.0 mi North 9.2 mph - 0.00 in   Mostly Cloudy
3:41 PM 51.8 °F - 41.0 °F 67% 30.20 in 10.0 mi North 4.6 mph - N/A   Overcast
3:55 PM 51.8 °F - 41.7 °F 68% 30.20 in 10.0 mi North 5.8 mph - N/A   Overcast
3:59 PM 51.8 °F - 41.0 °F 67% 30.20 in 10.0 mi North 5.8 mph - N/A   Light Drizzle
4:03 PM 51.8 °F - 41.0 °F 67% 30.20 in 10.0 mi North 4.6 mph - N/A   Light Drizzle
4:21 PM 51.8 °F - 42.8 °F 71% 30.20 in 10.0 mi North 5.8 mph - N/A   Overcast
4:49 PM 50.0 °F - 42.8 °F 76% 30.20 in 10.0 mi North 8.1 mph - N/A Rain Light Rain
4:55 PM 50.5 °F - 43.3 °F 76% 30.20 in 10.0 mi North 6.9 mph - 0.00 in Rain Light Rain
5:22 PM 50.0 °F - 44.6 °F 82% 30.21 in 10.0 mi North 5.8 mph - N/A   Mostly Cloudy
5:55 PM 50.0 °F - 43.9 °F 79% 30.22 in 10.0 mi North 3.5 mph - 0.01 in   Overcast
6:55 PM 48.6 °F - 43.5 °F 83% 30.23 in 10.0 mi North 3.5 mph - N/A   Scattered Clouds
8:55 PM 48.2 °F - 43.0 °F 82% 30.27 in 10.0 mi North 5.8 mph - N/A   Mostly Cloudy
9:55 PM 46.8 °F - 42.4 °F 85% 30.26 in 10.0 mi North 6.9 mph - N/A   Clear
10:55 PM 45.9 °F 41.7 °F 41.7 °F 85% 30.27 in 10.0 mi North 8.1 mph - N/A   Clear
11:55 PM 45.5 °F 41.3 °F 40.3 °F 82% 30.28 in 10.0 mi North 8.1 mph - N/A   Clear